YO7MGN Weather Reports


time (UTC)temp
C
wind
direction
speed
KPH
gust
KPH
rain 1hr
cm
rain 24hr
cm
rain mn
cm
humidity
%
barometer
mb
20260506114542 28 207 0.0 0.0 0.00 0.00 0.00 37 1013.1
20260506113050 27 151 0.0 0.0 0.00 0.00 0.00 40 1013.2
20260506111541 27 55 0.0 0.0 0.00 0.00 0.00 39 1013.3
20260506110040 27 351 0.0 0.0 0.00 0.00 0.00 42 1013.4
20260506104538 27 11 0.0 0.0 0.00 0.00 0.00 43 1013.6
20260506103044 26 341 0.0 0.0 0.00 0.00 0.00 42 1013.6
20260506101543 26 24 0.0 0.0 0.00 0.00 0.00 44 1013.8
20260506100026 26 24 0.0 0.0 0.00 0.00 0.00 46 1014.1
20260506094525 25 107 0.0 0.0 0.00 0.00 0.00 46 1014.1
20260506093027 24 11 0.0 0.0 0.00 0.00 0.00 47 1014.2
20260506091519 24 360 0.0 0.0 0.00 0.00 0.00 50 1014.1
20260506090015 23 351 0.0 0.0 0.00 0.00 0.00 49 1014.3
20260506084513 23 15 0.0 0.0 0.00 0.00 0.00 50 1014.2
20260506083010 23 42 0.0 0.0 0.00 0.00 0.00 53 1014.2
20260506081505 22 360 0.0 0.0 0.00 0.00 0.00 53 1014.3
20260506073053 21 360 0.0 0.0 0.00 0.00 0.00 57 1014.3
20260506071550 20 355 0.0 0.0 0.00 0.00 0.00 61 1014.3
20260506061535 16 355 0.0 3.2 0.00 0.00 0.00 68 1014.3
20260506044551 13 182 0.0 1.6 0.00 0.00 0.00 78 1013.6
20260506043024 12 183 0.0 0.0 0.00 0.00 0.00 78 1013.6
20260506041522 12 182 0.0 1.6 0.00 0.00 0.00 78 1013.6
20260506040022 12 182 0.0 0.0 0.00 0.00 0.00 78 1013.4
20260506034538 12 182 0.0 0.0 0.00 0.00 0.00 78 1013.3
20260506033017 12 182 0.0 0.0 0.00 0.00 0.00 78 1013.3
20260506031519 12 183 0.0 1.6 0.00 0.00 0.00 77 1013.4
20260506030015 12 182 0.0 0.0 0.00 0.00 0.00 78 1013.0
20260506024513 12 183 0.0 0.0 0.00 0.00 0.00 77 1013.0
20260506023012 12 183 0.0 0.0 0.00 0.00 0.00 77 1013.2
20260506021510 12 183 0.0 0.0 0.00 0.00 0.00 76 1013.1
20260506020009 12 182 0.0 0.0 0.00 0.00 0.00 76 1013.1
20260506014506 12 182 0.0 0.0 0.00 0.00 0.00 74 1013.1
20260506013005 13 182 0.0 0.0 0.00 0.00 0.00 74 1013.1
20260506011505 13 182 0.0 0.0 0.00 0.00 0.00 73 1013.2
20260506010004 13 182 0.0 0.0 0.00 0.00 0.00 72 1013.2
20260506004626 13 183 0.0 0.0 0.00 0.00 0.00 72 1013.2
20260506003110 14 183 0.0 0.0 0.00 0.00 0.00 72 1013.0
20260506001557 14 183 0.0 0.0 0.00 0.00 0.00 71 1013.0
20260506000053 14 183 0.0 0.0 0.00 0.00 0.00 71 1012.9
20260505234614 15 183 0.0 0.0 0.00 0.00 0.00 71 1012.8
20260505233049 15 183 0.0 0.0 0.00 0.00 0.00 70 1012.9
20260505231547 15 183 0.0 0.0 0.00 0.00 0.00 66 1013.0
20260505230045 15 183 0.0 0.0 0.00 0.00 0.00 65 1013.1
20260505224543 15 183 0.0 0.0 0.00 0.00 0.00 64 1013.1
20260505223042 16 182 0.0 0.0 0.00 0.00 0.00 63 1013.1
20260505221540 16 183 0.0 0.0 0.00 0.00 0.00 62 1013.0
20260505220054 16 182 0.0 0.0 0.00 0.00 0.00 62 1013.0
20260505214540 16 183 0.0 0.0 0.00 0.00 0.00 61 1013.0
20260505213033 16 183 0.0 0.0 0.00 0.00 0.00 60 1013.0
20260505211533 17 183 0.0 0.0 0.00 0.00 0.00 58 1013.0
20260505210028 17 183 0.0 0.0 0.00 0.00 0.00 57 1013.0
20260505204527 17 183 0.0 0.0 0.00 0.00 0.00 56 1013.0
20260505203027 18 183 0.0 0.0 0.00 0.00 0.00 55 1013.0
20260505201526 18 183 0.0 0.0 0.00 0.00 0.00 54 1013.0
20260505200026 18 183 0.0 0.0 0.00 0.00 0.00 49 1012.8
20260505194533 19 183 0.0 0.0 0.00 0.00 0.00 49 1012.6
20260505193036 20 183 0.0 0.0 0.00 0.00 0.00 49 1012.8
20260505191532 20 183 0.0 0.0 0.00 0.00 0.00 49 1012.9
20260505190023 20 183 0.0 0.0 0.00 0.00 0.00 46 1012.9
20260505184526 21 183 0.0 0.0 0.00 0.00 0.00 44 1012.9
20260505183027 21 183 0.0 0.0 0.00 0.00 0.00 41 1012.7
20260505181525 22 183 0.0 0.0 0.00 0.00 0.00 37 1012.7
20260505180037 22 183 0.0 0.0 0.00 0.00 0.00 35 1012.5
20260505174532 23 183 0.0 0.0 0.00 0.00 0.00 33 1012.5
20260505173021 24 183 0.0 0.0 0.00 0.00 0.00 31 1012.3
20260505171524 24 183 0.0 0.0 0.00 0.00 0.00 29 1012.2
20260505170026 25 182 0.0 0.0 0.00 0.00 0.00 28 1012.2
20260505164520 25 188 0.0 0.0 0.00 0.00 0.00 26 1012.2
20260505163021 26 111 0.0 0.0 0.00 0.00 0.00 25 1012.1
20260505161518 26 185 0.0 0.0 0.00 0.00 0.00 26 1012.1
20260505153019 28 179 0.0 0.0 0.00 0.00 0.00 25 1012.3
20260505151514 28 180 0.0 0.0 0.00 0.00 0.00 25 1012.4
20260505124600 30 143 0.0 0.0 0.00 0.00 0.00 24 1013.5
20260505123114 30 185 0.0 0.0 0.00 0.00 0.00 23 1013.7
20260505121557 30 180 0.0 0.0 0.00 0.00 0.00 23 1013.7
20260505120057 30 167 0.0 0.0 0.00 0.00 0.00 24 1014.0